STARLINK-2497, 48455

Orbit data source: Space-Track

STARLINK-2497, 48455 is a payload satellite owned by SpaceX/Seattle (US) in LEO that was launched on Sun, 09 May 2021 UTC via an FALCON 9 launch vehicle from the Air Force Eastern Test Range (AFETR). Payload-class satellites include a variety of spacecraft equipped with specific instruments for various scientific and technological missions. These include communications satellites like Starlink; space stations such as the ISS; scientific satellites like the Hubble; Earth observation satellites from companies like Planet Labs, Umbra, and HawkEye 360; GPS; miniature CubeSats for education and research; and military/defense satellites.

Loading next visibility...
Identifier
48455, 2021-040AD
Orbit
LEO
Country
Flag of USUS
Related business
Manufacturer
SpaceX/Seattle
Mission
Operational Commercial Communications
Bus & Motor
STARLINK, Unknown motor
Mass
260 kg wet, ~248 kg dry
Launch date (UTC)
2021-05-09 (5 years ago)
Launch vehicle
FALCON 9
Launch site
Air Force Eastern Test Range (AFETR)
Object type
Payload
Rocket body
Debris
Shape & HBR
Box + 1 Pan, 10.1 m
Radar Cross Section
13.562 m², Large (>1 m²)

Expand to show TLE details & history
Last TLE update: 3 days ago

TLE from 3 days ago
0 STARLINK-2497
1 48455U 21040AD  26170.91486985  .00002682  00000-0  98158-4 0  9992
2 48455  53.1595  62.8110 0001093  93.4330 266.6796 15.31697934282337
Epoch: 2026-06-19T21:57Z
TLE epoch observation values (Epoch: 2026-06-19T21:57:24.755Z)
Latitude
-0.00003°
Longitude
-174.67917°
Altitude
471.69 km
Speed
7.631 km/s
True Right ascension
04h 11m 14s
True Declination
0° 00' 00"
Sunlit
Object was in daylight at epoch
Visualization orbit readout
Latitude
Unknown
Longitude
Unknown
Altitude
Unknown
Speed
Unknown
Apparent Right ascension
Unknown
Apparent Declination
Unknown
Sunlit
N/A
Visualization observer readout
Local Sidereal Time
21:25:59
Azimuth
Unknown
Elevation
Unknown
Doppler factor
Unknown
Orbital elements
Apogee altitude
471.751 km
Perigee altitude
470.254 km
Semi-major axis
6,849.14 km
Eccentricity
0.00011
Inclination
53.1595°
RAAN
62.811°
Arg. of periapsis
93.433°
True anomaly
266.6671°
Mean anomaly
266.6796°
Eccentric anomaly
266.67335°
Mean motion
3.82903 °/min
Orbital period
94.02 mins
BSTAR
0.000098158
Loading maneuver chart data...
Computing Atmospheric mass density...

Documentation

Showing up to 5 results
|